Weather History for Lakeland Region, FL

Change the Weather History Date:

Tuesday, July 16, 2013

  Actual Average Record
Temperature  
Mean Temperature 80 °F -  
Max Temperature 87 °F 88 °F 96 °F (2011)
Min Temperature 73 °F 71 °F 70 °F (1987)
Cooling Degree Days 15    
Growing Degree Days 30 (Base 50)    
Moisture  
Dew Point 71 °F    
Average Humidity 88    
Maximum Humidity 94    
Minimum Humidity 49    
Precipitation  
Precipitation 0.00 in - - ()
Sea Level Pressure  
Sea Level Pressure 30.13 in    
Wind  
Wind Speed 7 mph (ENE)    
Max Wind Speed 18 mph    
Max Gust Speed 29 mph    
Visibility 12 miles    
Events Rain    
Averages and records for this station are not official NWS values.
T = Trace of Precipitation, MM = Missing Value Source: NWS Daily Summary

Daily Weather History Graph

Daily Weather History Graph

Search for Another Location

Airport:

Trip Planner

Search our weather history database for the weather conditions in past years. The results will help you decide how hot, cold, wet, or windy it might be!

Date:

Astronomy

Jul. 16, 2013 Rise Set
Actual Time 6:42 AM EDT 8:25 PM EDT
Civil Twilight 6:16 AM EDT 8:52 PM EDT
Nautical Twilight 5:44 AM EDT 9:23 PM EDT
Astronomical Twilight 5:11 AM EDT 9:56 PM EDT
Moon 2:17 PM EDT (7/16) 12:56 AM EDT (7/16)
Length of Visible Light 14h 35m
Length of Day
13h 43m
First Quarter, 56% of the Moon is Illuminated
Jul 16
First Quarter
Jul 22
Full
Jul 29
Last Quarter
Aug 6
New
Aug 14
First Quarter

Hourly Weather History & Observations

Time (EDT) Temp. Heat Index Dew Point Humidity Pressure Visibility Wind Dir Wind Speed Gust Speed Precip Events Conditions
12:15 AM 75.2 °F - 71.6 °F 89% 30.14 in 10.0 mi East 3.5 mph - N/A   Scattered Clouds
12:35 AM 75.2 °F - 71.6 °F 89% 30.13 in 10.0 mi East 5.8 mph - N/A   Scattered Clouds
12:55 AM 75.2 °F - 71.6 °F 89% 30.13 in 10.0 mi East 6.9 mph - N/A   Clear
1:15 AM 75.2 °F - 71.6 °F 89% 30.12 in 10.0 mi ESE 6.9 mph - N/A   Clear
1:35 AM 75.2 °F - 71.6 °F 89% 30.12 in 10.0 mi East 6.9 mph - N/A   Clear
1:55 AM 73.4 °F - 71.6 °F 94% 30.11 in 10.0 mi East 5.8 mph - N/A   Clear
2:15 AM 73.4 °F - 71.6 °F 94% 30.12 in 10.0 mi East 5.8 mph - N/A   Clear
2:35 AM 73.4 °F - 71.6 °F 94% 30.12 in 10.0 mi East 4.6 mph - N/A   Clear
2:55 AM 73.4 °F - 71.6 °F 94% 30.12 in 10.0 mi East 5.8 mph - N/A   Clear
3:15 AM 73.4 °F - 71.6 °F 94% 30.11 in 10.0 mi ENE 5.8 mph - N/A   Clear
3:35 AM 73.4 °F - 71.6 °F 94% 30.11 in - ENE 5.8 mph - N/A   Unknown
3:55 AM 73.4 °F - 71.6 °F 94% 30.10 in - ENE 6.9 mph - N/A   Unknown
4:15 AM 73.4 °F - 71.6 °F 94% 30.10 in - ENE 5.8 mph - N/A   Unknown
4:35 AM 73.4 °F - 71.6 °F 94% 30.11 in - ENE 8.1 mph - N/A   Unknown
4:55 AM 73.4 °F - 71.6 °F 94% 30.11 in - ENE 8.1 mph - N/A   Unknown
5:15 AM 73.4 °F - 71.6 °F 94% 30.11 in - ENE 6.9 mph - N/A   Unknown
5:35 AM 73.4 °F - 71.6 °F 94% 30.11 in 10.0 mi ENE 6.9 mph - N/A   Clear
5:52 AM 73.4 °F - 71.6 °F 94% 30.12 in 10.0 mi ENE 5.8 mph - N/A   Scattered Clouds
5:55 AM 73.4 °F - 71.6 °F 94% 30.12 in 10.0 mi ENE 6.9 mph - N/A   Clear
6:15 AM 73.4 °F - 71.6 °F 94% 30.12 in 10.0 mi ENE 6.9 mph - N/A   Clear
6:35 AM 73.4 °F - 71.6 °F 94% 30.12 in - NE 4.6 mph - N/A   Unknown
6:54 AM 73.4 °F - 71.6 °F 94% 30.13 in 10.0 mi ENE 5.8 mph - N/A   Scattered Clouds
7:55 AM 77.0 °F - 73.4 °F 89% 30.13 in 12.0 mi ENE 9.2 mph - N/A   Clear
8:56 AM 80.6 °F 85.4 °F 73.4 °F 79% 30.16 in 12.0 mi ENE 8.1 mph - N/A   Mostly Cloudy
9:55 AM 82.4 °F 87.2 °F 71.6 °F 70% 30.16 in 15.0 mi East 12.7 mph 17.3 mph N/A   Mostly Cloudy
10:58 AM 84.2 °F 88.4 °F 69.8 °F 62% 30.16 in 20.0 mi East 12.7 mph 18.4 mph N/A   Mostly Cloudy
11:50 AM 87.8 °F 91.4 °F 68.0 °F 52% 30.16 in 20.0 mi East 13.8 mph 19.6 mph N/A   Mostly Cloudy
12:55 PM 87.8 °F 90.4 °F 66.2 °F 49% 30.15 in 15.0 mi East 11.5 mph 17.3 mph N/A   Mostly Cloudy
2:50 PM 77.0 °F - 69.8 °F 78% 30.17 in 0.8 mi SE 18.4 mph 28.8 mph N/A Rain Heavy Rain
3:50 PM 73.4 °F - 71.6 °F 94% 30.15 in 15.0 mi East 9.2 mph - N/A   Drizzle
4:50 PM 73.4 °F - 71.6 °F 94% 30.15 in 20.0 mi NE 5.8 mph - N/A   Overcast
5:50 PM 75.2 °F - 71.6 °F 89% 30.14 in 20.0 mi ENE 6.9 mph - N/A   Overcast
6:50 PM 75.2 °F - 71.6 °F 89% 30.13 in 20.0 mi East 4.6 mph - N/A   Overcast
7:50 PM 75.2 °F - 71.6 °F 89% 30.15 in 20.0 mi NE 6.9 mph - N/A   Mostly Cloudy
9:50 PM 73.4 °F - 71.6 °F 94% 30.16 in 20.0 mi ENE 4.6 mph - N/A   Mostly Cloudy
10:55 PM 73.4 °F - 71.6 °F 94% 30.17 in 10.0 mi ENE 5.8 mph - N/A   Clear
11:15 PM 73.4 °F - 71.6 °F 94% 30.17 in 10.0 mi NE 4.6 mph - N/A   Clear
11:35 PM 73.4 °F - 71.6 °F 94% 30.17 in 10.0 mi ENE 5.8 mph - N/A   Clear
11:55 PM 73.4 °F - 71.6 °F 94% 30.17 in 10.0 mi ENE 4.6 mph - N/A   Clear